EHI
0 0 0 0 0 0 0 0 0 0 0 0 0 0 0 0 0 0 0 0 0 0 0 0 0 0 0 0 0 0 0 0 0 0 0 0 0 0
0 0 0 0 0 0 0 0 0 0 0 0 0 0 0 0 0 0 0 0 0 0 0 0 0 0 0 0 0 0 0 0 0 0 0 0 0 0
0 0 0 0 0 0 0 0 0 0 0 0 0 0 0 0 0 0 0 0 0 0 0 0 0 0 0 0 0 0 0 0 0 0 0 0 0 0
0 0 0 0 0 0 0 0 0 0 0 0 0 0 0 0 0 0 0 0 0 0 0 0 0 0 0 0 0 0 0 0 0 0 0 0 0 0
0 0 0 0 0 0 0 0 0 0 0 0 0 0 0 0 0 0 0 0 0 0 0 0 0 0 0 0 0 0 0 0 0 0 0 0 0 0
0 0 0 0 0 0 0 0 0 0 0 0 0 0 0 0 0 0 0 0 0 0 0 0 0 0 0 0 0 0 0 0 0 0 0 0 0 0
0 0 0 0 0 0 0 0 0 0 0 0 0 0 0 0 0 0 0 0 0 0 0 0 0 0 0 0 0 0 0 0 0 0 0 0 0 0
0 0 0 0 0 0 0 0 0 0 0 0 0 0 0 0 0 0 0 0 0 0 0 0 0 0 0 0 0 0 0 0 0 0 0 0 0 0
0 0 0 0 0 0 0 0 0 0 0 0 0 0 0 0 0 0 0 0 0 0 0 0 0 0 0 0 0 0 0 0 0 0 0 0 0 0
0 0 0 0 0 0 0 0 0 0 0 0 0 0 0 0 0 0 0 0 0 0 0 0 0 0 0 0 0 0 0 0 0 0 0 0 0 0
0 0 0 0 0 0 0 0 0 0 0 0 0 0 0 0 0 0 0 0 0 0 0 0 0 0 0 0 0 0 0 0 0 0 0 0 0 0
0 0 0 0 0 0 0 0 0 0 0 0 0 0 0 0 0 0 0 0 0 0 0 0 0 0 0 0 0 0 0 0 0 0 0 0 0 0
0 0 0 0 0 0 0 0 0 0 0 0 0 0 0 0 0 0 0 0 0 0 0 0 0 0 0 0 0 0 0 0 0 0 0 0 0 0
0 0 0 0 0 0 0 0 0 0 0 0 0 0 0 0 0 0 0 0 0 0 0 0 0 0 0 0 0 0 0 0 0 0 0 0 0 0
0 0 0 0 0 0 0 0 0 0 0 0 0 0 0 0 0 0 0 0 0 0 0 0 0 0 0 0 0 0 0 0 0 0 0 0 0 0
0 0 0 0 0 0 0 0 0 0 0 0 0 0 0 0 0 0 0 0 0 0 0 0 0 0 0 0 0 0 0 0 0 0 0 0 0 0
0 0 0 0 0 0 0 0 0 0 0 0 0 0 0 0 0 0 0 0 0 0 0 0 0 0 0 0 0 0 0 0 0 0 0 0 0 0
0 0 0 0 0 0 0 0 0 0 0 0 0 0 0 0 0 0 0 0 0 0 0 0 0 0 0 0 0 0 0 0 0 0 0 0 0 0
0 0 0 0 0 0 0 0 0 0 0 0 0 0 0 0 0 0 0 0 0 0 0 0 0 0 0 0 0 0 0 0 0 0 0 0 0 0
0 0 0 0 0 0 0 0 0 0 0 0 0 0 0 0 0 0 0 0 0 0 0 0 0 0 0 0 0 0 0 0 0 0 0 0 0 0
0 0 0 0 0 0 0 0 0 0 0 0 0 0 0 0 0 0 0 0 0 0 0 0 0 0 0 0 0 0 0 0 0 0 0 0 0 0
0 0 0 0 0 0 0 0 0 0 0 0 0 0 0 0 0 0 0 0 0 0 0 0 0 0 0 0 0 0 0 0 0 0 0 0 0 0
0 0 0 0 0 0 0 0 0 0 0 0 0 0 0 0 0 0 0 0 0 0 0 0 0 0 0 0 0 0 0 0 0 0 0 0 0 0
Wind_Speed
6 6 4 2 2 2 2 2 3 2 1 2 3 3 3 2 2 2 2 4 5 6 5 4 4 5 5 4 4 5 6 7 8 8 9 11 12 15
3 4 3 2 2 1 2 2 3 3 2 1 2 2 3 4 5 5 5 7 7 8 7 3 3 5 6 7 7 7 8 9 9 10 12 13 14 16
2 3 4 4 3 2 3 3 2 3 3 2 3 4 5 5 4 4 5 5 6 11 8 4 4 5 6 7 8 9 10 10 10 10 12 14 16 18
4 5 6 6 5 4 4 4 3 2 4 4 4 5 5 4 4 4 4 5 5 11 9 7 5 4 5 6 8 9 9 10 11 12 13 15 17 19
7 7 6 7 7 5 6 5 4 5 5 5 3 2 2 3 3 4 4 4 5 8 10 9 8 7 7 8 8 8 9 9 11 13 14 15 16 18
7 7 6 6 6 6 6 6 7 7 6 5 3 3 3 3 3 4 4 3 3 4 6 5 5 6 7 8 9 10 10 11 12 13 13 14 15 17
9 9 8 9 10 7 6 6 7 6 5 4 3 4 4 4 4 3 3 3 3 3 3 3 3 3 3 6 9 12 12 13 13 13 13 13 15 16
8 7 7 8 10 13 13 11 8 6 5 4 3 3 3 3 3 3 3 4 4 4 3 4 2 3 3 3 7 11 13 14 15 15 15 15 15 15
7 7 7 8 9 9 11 12 11 10 6 4 3 2 2 2 3 4 4 2 1 3 2 3 3 3 4 3 7 9 12 14 15 16 16 16 16 15
7 7 8 7 7 8 8 8 7 7 6 3 3 2 2 0 1 1 0 1 2 3 3 2 4 3 4 3 6 9 11 13 14 15 16 16 15 13
5 6 8 8 11 13 10 8 9 7 9 13 11 10 9 8 5 5 5 4 3 3 3 3 3 4 4 4 6 11 12 13 14 14 15 15 13 9
5 6 9 10 12 12 9 9 9 6 6 9 9 9 7 7 9 5 3 3 2 3 4 3 4 4 4 4 4 6 8 11 14 13 14 15 13 6
4 3 4 11 12 12 10 7 6 5 6 7 6 6 5 6 6 5 4 3 3 1 4 2 3 4 3 4 4 4 5 6 7 9 12 14 14 9
5 3 3 9 11 10 8 10 11 8 5 5 5 4 4 4 4 5 6 5 3 2 3 3 2 2 3 4 4 4 4 5 6 7 8 13 11 11
5 8 7 8 8 6 8 10 8 6 5 5 4 3 2 2 3 4 6 6 6 6 6 5 3 2 3 3 3 4 4 5 6 6 8 10 11 10
5 6 6 4 4 4 5 5 4 4 4 4 2 2 3 4 4 4 4 4 5 5 6 6 5 4 3 3 3 4 4 5 6 5 5 6 7 8
6 3 2 2 2 2 3 3 3 4 4 3 3 4 4 4 3 3 3 3 4 3 5 6 5 3 2 2 4 4 4 4 5 6 5 5 6 7
7 3 2 2 3 4 4 2 2 3 3 3 3 3 3 3 2 3 3 3 3 3 3 4 5 6 6 4 3 3 4 4 5 6 5 5 6 7
5 3 3 4 4 4 5 4 3 3 3 3 3 3 3 2 2 2 3 3 3 3 3 3 4 4 4 5 7 5 3 4 5 5 5 5 5 5
3 4 4 4 4 5 6 5 4 4 3 3 3 2 3 2 1 1 1 2 2 2 3 4 3 2 0 2 3 5 6 3 3 4 4 4 3 4
4 4 4 4 4 6 7 6 5 5 4 4 3 3 3 3 2 1 1 3 3 2 3 3 4 4 1 2 3 4 5 5 4 3 3 4 4 5
6 5 5 5 5 6 7 6 5 4 5 4 4 4 3 2 3 3 3 3 3 2 1 2 5 4 4 4 2 3 5 6 6 8 9 5 2 3
6 6 5 5 6 6 7 7 7 5 5 5 4 4 3 3 3 3 4 4 3 2 1 2 4 4 3 3 2 2 4 5 4 5 5 6 6 4
Wind_Direction
210 202 196 189 168 157 146 138 132 110 57 345 2 356 4 11 24 29 347 319 315 306 300 313 337 344 349 342 317 291 276 267 264 263 261 260 255 249
178 170 156 128 126 141 138 127 132 135 119 319 355 347 360 9 16 17 8 360 344 328 306 304 340 351 348 339 327 311 293 278 267 259 255 253 252 252
91 123 123 117 120 129 121 123 125 119 117 33 14 10 25 17 11 20 26 23 2 360 352 10 26 14 355 338 323 310 299 292 287 279 271 261 255 251
101 100 105 109 98 90 87 89 93 104 112 92 40 20 16 8 17 29 27 25 9 14 31 53 60 43 12 346 330 316 303 293 286 281 276 268 261 256
100 102 104 102 91 85 83 82 80 80 91 99 68 9 5 4 3 15 34 22 20 31 43 54 52 43 30 12 358 347 329 306 288 279 276 273 268 262
87 86 84 90 95 92 84 82 88 88 85 88 72 22 11 344 18 15 11 4 13 23 29 25 20 15 12 8 2 355 342 327 310 297 288 283 277 270
78 71 68 76 83 84 86 82 88 91 86 79 62 36 16 12 1 349 4 348 346 3 354 343 338 335 337 351 357 350 342 334 326 318 309 298 289 279
86 74 66 62 77 78 78 76 84 95 97 88 73 58 21 3 351 6 13 24 355 339 351 318 324 317 311 329 347 348 345 340 336 329 322 313 304 294
88 81 73 63 71 78 72 66 61 63 81 125 98 70 46 351 10 27 27 31 323 308 347 313 321 314 302 306 334 340 341 342 341 338 331 320 310 301
98 100 92 70 71 83 71 56 42 33 36 65 111 127 147 168 112 116 139 16 316 322 26 343 316 308 305 315 332 338 336 339 342 342 336 326 318 308
86 90 95 85 79 81 75 63 46 25 39 60 71 79 81 72 69 57 39 46 8 319 352 11 316 313 317 326 342 347 339 335 335 338 339 336 332 320
74 70 82 91 83 81 80 74 60 30 38 50 47 39 39 42 50 64 79 80 53 339 325 1 335 345 338 329 348 352 348 340 337 337 344 349 353 349
111 94 86 98 95 90 87 80 82 83 63 62 52 36 26 24 24 31 44 93 91 6 313 0 356 354 354 323 331 340 348 345 348 348 347 355 7 16
143 147 136 119 111 102 88 91 89 82 70 62 53 36 24 14 10 27 38 48 64 51 352 27 30 359 10 0 331 321 328 343 352 358 2 3 8 17
153 162 160 137 108 86 83 92 90 84 78 70 57 28 356 358 20 29 24 31 33 30 26 30 43 30 48 16 336 331 331 336 349 0 11 18 17 13
136 162 163 134 95 88 79 79 86 104 108 101 83 29 20 32 34 30 30 22 32 2 358 15 24 43 36 15 22 358 348 344 337 345 358 14 20 26
136 110 96 97 100 86 86 90 91 94 91 87 75 53 38 41 26 18 40 48 49 11 349 345 349 10 43 43 22 359 346 344 342 341 353 8 16 21
132 132 159 180 171 157 152 144 119 112 118 114 94 80 65 57 30 12 38 55 48 19 357 343 352 7 11 9 40 13 357 344 336 350 6 16 17 17
138 154 174 195 191 167 161 160 158 148 139 128 115 105 92 81 62 25 23 41 40 26 355 349 17 40 31 351 326 10 20 349 355 3 8 19 21 18
163 168 183 194 177 161 162 164 158 150 139 143 149 140 124 120 99 46 32 48 55 39 19 12 13 7 293 247 284 319 1 21 22 10 354 358 10 13
180 179 181 180 174 165 164 166 164 164 157 154 172 183 167 148 141 120 92 83 93 74 43 350 306 320 219 56 18 341 335 2 51 54 12 10 2 4
180 183 186 180 171 168 166 168 170 171 163 160 178 195 194 167 155 144 129 122 123 125 81 330 340 7 32 44 12 326 331 341 4 33 43 60 70 21
180 181 184 180 175 172 172 176 179 184 180 173 179 189 184 173 163 148 141 144 146 135 78 18 3 8 15 33 27 359 355 351 352 11 7 25 74 75